Orbital Elements at Epoch 2459000.5 (2020-May-31.0) TDB
Reference: JPL 12 (heliocentric ecliptic J2000)
Element | Value | Uncertainty (1-sigma) | Units |
e | .2613819531734224 | 4.9396e-08 | |
a | 2.646818491774529 | 1.2427e-08 | au |
q | 1.954987904698971 | 1.3424e-07 | au |
i | 12.64898924286296 | 6.6061e-06 | deg |
node | 333.9753746323047 | 2.3027e-05 | deg |
peri | 88.27951437442512 | 2.9131e-05 | deg |
M | 25.37718107148395 | 1.2878e-05 | deg |
tp | 2458889.627064852592 (2020-Feb-10.12706485) | 5.6299e-05 | TDB |
period | 1572.840440419059 4.31 | 1.1077e-05 3.033e-08 | d yr |
n | .2288852643591003 | 1.6119e-09 | deg/d |
Q | 3.338649078850088 | 1.5675e-08 | au |
|
| | Orbit Determination Parameters
Additional Information
|